| time (UTC) | temp F | wind direction | speed MPH | gust MPH | rain 1hr in | rain 24hr in | rain mn in | humidity % | barometer mb |
| 20260504201550 | 55 | 279 | 11.0 | 22.0 | 0.00 | 0.00 | 0.00 | 42 | 999.8 |
| 20260504200048 | 54 | 308 | 12.0 | 32.0 | 0.00 | 0.00 | 0.00 | 40 | 999.6 |
| 20260504194548 | 55 | 293 | 14.0 | 34.0 | 0.00 | 0.00 | 0.00 | 41 | 999.2 |
| 20260504193045 | 55 | 284 | 15.0 | 25.0 | 0.00 | 0.00 | 0.00 | 44 | 999.0 |
| 20260504191543 | 57 | 299 | 13.0 | 26.0 | 0.00 | 0.00 | 0.00 | 41 | 998.7 |
| 20260504190042 | 56 | 259 | 13.0 | 26.0 | 0.00 | 0.00 | 0.00 | 42 | 998.5 |
| 20260504184541 | 55 | 275 | 11.0 | 27.0 | 0.00 | 0.00 | 0.00 | 42 | 998.5 |
| 20260504183039 | 55 | 334 | 12.0 | 25.0 | 0.00 | 0.00 | 0.00 | 43 | 998.2 |
| 20260504181538 | 55 | 306 | 13.0 | 24.0 | 0.00 | 0.00 | 0.00 | 44 | 997.9 |
| 20260504180037 | 55 | 292 | 14.0 | 28.0 | 0.00 | 0.00 | 0.00 | 45 | 997.9 |
| 20260504174536 | 56 | 286 | 14.0 | 25.0 | 0.00 | 0.00 | 0.00 | 46 | 997.4 |
| 20260504173037 | 57 | 310 | 7.0 | 22.0 | 0.00 | 0.00 | 0.00 | 48 | 997.2 |
| 20260504171534 | 57 | 307 | 13.0 | 26.0 | 0.00 | 0.00 | 0.00 | 46 | 997.0 |
| 20260504081524 | 57 | 194 | 11.0 | 18.0 | 0.00 | 0.00 | 0.00 | 40 | 994.4 |
| 20260504044542 | 55 | 167 | 6.0 | 12.0 | 0.00 | 0.00 | 0.00 | 44 | 999.0 |
| 20260504043044 | 55 | 189 | 5.0 | 12.0 | 0.00 | 0.00 | 0.00 | 44 | 999.4 |
| 20260504041537 | 53 | 169 | 5.0 | 9.0 | 0.00 | 0.00 | 0.00 | 46 | 999.7 |
| 20260504040039 | 52 | 175 | 5.0 | 10.0 | 0.00 | 0.00 | 0.00 | 47 | 1000.1 |
| 20260504034536 | 51 | 173 | 4.0 | 6.0 | 0.00 | 0.00 | 0.00 | 49 | 1000.4 |
| 20260504033037 | 51 | 172 | 4.0 | 6.0 | 0.00 | 0.00 | 0.00 | 48 | 1000.8 |
| 20260504031528 | 52 | 184 | 3.0 | 5.0 | 0.00 | 0.00 | 0.00 | 48 | 1001.1 |
| 20260504030027 | 52 | 188 | 2.0 | 5.0 | 0.00 | 0.00 | 0.00 | 47 | 1001.5 |
| 20260504024525 | 54 | 236 | 2.0 | 4.0 | 0.00 | 0.00 | 0.00 | 44 | 1001.7 |
| 20260504023024 | 55 | 236 | 2.0 | 3.0 | 0.00 | 0.00 | 0.00 | 41 | 1001.7 |
| 20260504021522 | 57 | 236 | 2.0 | 3.0 | 0.00 | 0.00 | 0.00 | 38 | 1001.8 |
| 20260504020021 | 59 | 236 | 1.0 | 3.0 | 0.00 | 0.00 | 0.00 | 34 | 1002.0 |
| 20260504014522 | 61 | 241 | 1.0 | 4.0 | 0.00 | 0.00 | 0.00 | 31 | 1002.0 |
| 20260504013031 | 63 | 208 | 1.0 | 5.0 | 0.00 | 0.00 | 0.00 | 28 | 1002.0 |
| 20260504011520 | 64 | 240 | 2.0 | 5.0 | 0.00 | 0.00 | 0.00 | 27 | 1001.9 |
| 20260504010019 | 65 | 260 | 3.0 | 9.0 | 0.00 | 0.00 | 0.00 | 26 | 1002.1 |
| 20260504004518 | 66 | 264 | 5.0 | 13.0 | 0.00 | 0.00 | 0.00 | 26 | 1002.1 |
| 20260504003017 | 67 | 257 | 5.0 | 13.0 | 0.00 | 0.00 | 0.00 | 25 | 1002.2 |
| 20260504001516 | 68 | 255 | 6.0 | 16.0 | 0.00 | 0.00 | 0.00 | 24 | 1002.2 |
| 20260504000040 | 68 | 283 | 6.0 | 12.0 | 0.00 | 0.00 | 0.00 | 24 | 1002.3 |
| 20260503234513 | 67 | 267 | 3.0 | 12.0 | 0.00 | 0.00 | 0.00 | 25 | 1002.5 |
| 20260503233013 | 67 | 272 | 7.0 | 13.0 | 0.00 | 0.00 | 0.00 | 24 | 1002.7 |
| 20260503231511 | 67 | 227 | 7.0 | 18.0 | 0.00 | 0.00 | 0.00 | 23 | 1002.6 |
| 20260503230015 | 68 | 279 | 8.0 | 15.0 | 0.00 | 0.00 | 0.00 | 23 | 1002.7 |
| 20260503224510 | 69 | 242 | 4.0 | 14.0 | 0.00 | 0.00 | 0.00 | 24 | 1002.8 |
| 20260503223008 | 68 | 254 | 7.0 | 13.0 | 0.00 | 0.00 | 0.00 | 22 | 1002.8 |
| 20260503221507 | 68 | 250 | 8.0 | 18.0 | 0.00 | 0.00 | 0.00 | 24 | 1003.1 |
| 20260503220006 | 68 | 281 | 6.0 | 14.0 | 0.00 | 0.00 | 0.00 | 24 | 1003.2 |
| 20260503214503 | 68 | 261 | 8.0 | 16.0 | 0.00 | 0.00 | 0.00 | 24 | 1003.3 |
| 20260503213002 | 67 | 261 | 6.0 | 15.0 | 0.00 | 0.00 | 0.00 | 26 | 1003.5 |
| 20260503211620 | 67 | 312 | 6.0 | 14.0 | 0.00 | 0.00 | 0.00 | 24 | 1003.7 |
| 20260503210101 | 68 | 273 | 7.0 | 13.0 | 0.00 | 0.00 | 0.00 | 25 | 1003.9 |
| 20260503204559 | 68 | 306 | 10.0 | 16.0 | 0.00 | 0.00 | 0.00 | 23 | 1004.0 |
| 20260503203113 | 67 | 279 | 10.0 | 21.0 | 0.00 | 0.00 | 0.00 | 23 | 1004.1 |